Simultaneous Nadir Overpasses (SNOs) Predictions

Prediction of SNOs between LANDSAT-8 and NPP Satellite Orbit:

Table of predicted SNOs for the next 14.0 days since TLE Epoch: 2/20/2016
Index Date (LANDSAT-8) Time (LANDSAT-8) Lat,Lon (LANDSAT-8) SZA (LANDSAT-8 ) Date (NPP) Time (NPP) Lat,Lon (NPP) SZA (NPP ) Distance(km) Time Diff (sec)
1 02/21/2016 06:08:48 70.25, 84.40 81.03 02/21/2016 06:08:24 70.27, 84.39 81.05 1.69 24
2 02/21/2016 06:58:18 -70.14,-108.12 99.10 02/21/2016 06:59:05 -70.14,-108.09 99.10 1.38 47
3 02/23/2016 21:35:47 -70.48, 32.97 99.72 02/23/2016 21:34:34 -70.56, 32.41 99.61 22.57 73
4 02/23/2016 22:25:17 70.21,-159.78 80.01 02/23/2016 22:25:14 70.23,-159.77 80.03 1.93 3
5 02/23/2016 23:14:47 -70.10, 7.70 100.11 02/23/2016 23:15:55 -70.10, 7.76 100.13 2.30 68
6 02/26/2016 13:52:19 -70.33, 148.62 100.87 02/26/2016 13:51:21 -70.31, 148.58 100.87 2.29 58
7 02/26/2016 14:41:46 70.22, -43.89 79.02 02/26/2016 14:42:05 70.20, -43.94 79.00 2.92 19
8 02/26/2016 15:31:27 -69.51, 122.75 101.66 02/26/2016 15:32:35 -69.48, 124.46 101.77 66.54 68
9 02/29/2016 06:08:49 -70.27, -95.59 101.93 02/29/2016 06:08:12 -70.27, -95.58 101.92 0.54 37
10 02/29/2016 06:58:16 70.16, 71.89 77.95 02/29/2016 06:58:56 70.16, 71.90 77.96 0.68 40
11 03/02/2016 21:35:40 70.79,-146.56 77.56 03/02/2016 21:34:30 70.81,-147.97 77.64 51.61 70
12 03/02/2016 22:25:18 -70.25, 20.27 102.97 03/02/2016 22:25:03 -70.24, 20.25 102.98 2.04 15
13 03/02/2016 23:14:45 70.14,-172.25 76.91 03/02/2016 23:15:47 70.13,-172.28 76.90 1.28 62
14 03/05/2016 13:52:16 70.33, -31.38 76.08 03/05/2016 13:51:11 70.31, -31.39 76.07 2.66 65
15 03/05/2016 14:41:46 -70.23, 136.11 104.03 03/05/2016 14:41:53 -70.20, 136.09 104.06 2.99 7
16 03/05/2016 15:31:20 69.73, -56.95 75.49 03/05/2016 15:32:30 69.73, -55.90 75.44 40.64 70




NCC Satellite Simultaneous Nadir Overpasses (SNOs) Prediction Service
